Time,TemperatureF,DewpointF,PressureIn,WindDirection,WindDirectionDegrees,WindSpeedMPH,WindSpeedGustMPH,Humidity,HourlyPrecipIn,Conditions,Clouds,dailyrainin,SoftwareType,DateUTC
2013-03-08 00:01:00,26.0,24.0,-100.00,SSE,150,11.0,14.0,90,0.00,,,-99.99,,2013-03-08 06:01:00,
2013-03-08 00:11:00,26.0,24.0,-100.00,SSE,155,11.0,14.0,90,0.00,,,-99.99,,2013-03-08 06:11:00,
2013-03-08 00:21:00,26.0,24.0,-100.00,SSE,150,10.0,12.0,90,0.00,,,-99.99,,2013-03-08 06:21:00,
2013-03-08 00:32:00,26.0,24.0,-100.00,SE,140,8.0,12.0,90,0.00,,,-99.99,,2013-03-08 06:32:00,
2013-03-08 00:42:00,26.0,24.0,-100.00,SE,140,8.0,11.0,90,0.00,,,-99.99,,2013-03-08 06:42:00,
2013-03-08 00:51:00,26.0,24.0,-100.00,SE,140,9.0,11.0,90,0.00,,,-99.99,,2013-03-08 06:51:00,
2013-03-08 01:01:00,26.0,24.0,-100.00,SE,140,9.0,12.0,90,0.00,,,-99.99,,2013-03-08 07:01:00,
2013-03-08 01:11:00,26.0,24.0,-100.00,SE,145,7.0,11.0,90,0.00,,,-99.99,,2013-03-08 07:11:00,
2013-03-08 01:21:00,26.0,23.0,-100.00,SE,140,7.0,9.0,90,0.00,,,-99.99,,2013-03-08 07:21:00,
2013-03-08 01:31:00,26.0,23.0,-100.00,SE,135,7.0,9.0,90,0.00,,,-99.99,,2013-03-08 07:31:00,
2013-03-08 01:42:00,26.0,23.0,-100.00,SE,145,9.0,10.0,90,0.00,,,-99.99,,2013-03-08 07:42:00,
2013-03-08 01:51:00,26.0,23.0,-100.00,SE,140,10.0,12.0,90,0.00,,,-99.99,,2013-03-08 07:51:00,
2013-03-08 02:01:00,26.0,23.0,-100.00,SE,140,10.0,12.0,90,0.00,,,-99.99,,2013-03-08 08:01:00,
2013-03-08 02:11:00,26.0,23.0,-100.00,SE,145,8.0,11.0,90,0.00,,,-99.99,,2013-03-08 08:11:00,
2013-03-08 02:21:00,26.0,23.0,-100.00,SE,145,9.0,11.0,90,0.00,,,-99.99,,2013-03-08 08:21:00,
2013-03-08 02:32:00,25.0,23.0,-100.00,SE,145,9.0,10.0,90,0.00,,,-99.99,,2013-03-08 08:32:00,
2013-03-08 02:41:00,25.0,23.0,-100.00,SE,140,7.0,10.0,90,0.00,,,-99.99,,2013-03-08 08:41:00,
2013-03-08 02:52:00,25.0,22.0,-100.00,SE,130,7.0,9.0,90,0.00,,,-99.99,,2013-03-08 08:52:00,
2013-03-08 03:03:00,25.0,22.0,-100.00,SE,130,7.0,9.0,90,0.00,,,-99.99,,2013-03-08 09:03:00,
2013-03-08 03:11:00,24.0,22.0,-100.00,ESE,120,7.0,9.0,90,0.00,,,-99.99,,2013-03-08 09:11:00,
2013-03-08 03:21:00,24.0,22.0,-100.00,SE,125,6.0,9.0,90,0.00,,,-99.99,,2013-03-08 09:21:00,
2013-03-08 03:32:00,24.0,22.0,-100.00,SE,125,7.0,7.0,91,0.00,,,-99.99,,2013-03-08 09:32:00,
2013-03-08 03:42:00,24.0,22.0,-100.00,SE,130,7.0,9.0,91,0.00,,,-99.99,,2013-03-08 09:42:00,
2013-03-08 03:52:00,24.0,22.0,-100.00,ESE,120,7.0,9.0,92,0.00,,,-99.99,,2013-03-08 09:52:00,
2013-03-08 04:01:00,24.0,22.0,-100.00,ESE,120,7.0,9.0,92,0.00,,,-99.99,,2013-03-08 10:01:00,
2013-03-08 04:11:00,23.0,21.0,-100.00,SE,125,6.0,7.0,92,0.00,,,-99.99,,2013-03-08 10:11:00,
2013-03-08 04:21:00,23.0,21.0,-100.00,ESE,120,6.0,7.0,92,0.00,,,-99.99,,2013-03-08 10:21:00,
2013-03-08 04:32:00,22.0,21.0,-100.00,ESE,110,5.0,6.0,92,0.00,,,-99.99,,2013-03-08 10:32:00,
2013-03-08 04:41:00,22.0,20.0,-100.00,ESE,120,6.0,6.0,92,0.00,,,-99.99,,2013-03-08 10:41:00,
2013-03-08 04:51:00,22.0,20.0,-100.00,ESE,120,5.0,6.0,92,0.00,,,-99.99,,2013-03-08 10:51:00,
2013-03-08 05:01:00,22.0,20.0,-100.00,ESE,120,5.0,6.0,92,0.00,,,-99.99,,2013-03-08 11:01:00,
2013-03-08 05:11:00,22.0,20.0,-100.00,ESE,120,6.0,6.0,93,0.00,,,-99.99,,2013-03-08 11:11:00,
2013-03-08 05:21:00,22.0,20.0,-100.00,ESE,120,6.0,6.0,93,0.00,,,-99.99,,2013-03-08 11:21:00,
2013-03-08 05:32:00,22.0,20.0,-100.00,ESE,120,6.0,6.0,93,0.00,,,-99.99,,2013-03-08 11:32:00,
2013-03-08 05:41:00,22.0,20.0,-100.00,ESE,120,5.0,6.0,93,0.00,,,-99.99,,2013-03-08 11:41:00,
2013-03-08 05:52:00,22.0,20.0,-100.00,ESE,120,7.0,7.0,93,0.00,,,-99.99,,2013-03-08 11:52:00,
2013-03-08 06:01:00,22.0,20.0,-100.00,ESE,120,7.0,7.0,93,0.00,,,-99.99,,2013-03-08 12:01:00,
2013-03-08 06:11:00,22.0,20.0,-100.00,SE,125,6.0,7.0,93,0.00,,,-99.99,,2013-03-08 12:11:00,
2013-03-08 06:22:00,22.0,20.0,-100.00,ESE,115,6.0,7.0,94,0.00,,,-99.99,,2013-03-08 12:22:00,
2013-03-08 06:32:00,21.0,20.0,-100.00,ESE,115,6.0,8.0,94,0.00,,,-99.99,,2013-03-08 12:32:00,
2013-03-08 06:42:00,21.0,20.0,-100.00,ESE,115,6.0,7.0,94,0.00,,,-99.99,,2013-03-08 12:42:00,
2013-03-08 06:52:00,21.0,20.0,-100.00,ESE,120,7.0,7.0,94,0.00,,,-99.99,,2013-03-08 12:52:00,
2013-03-08 07:01:00,21.0,20.0,-100.00,ESE,110,6.0,8.0,94,0.00,,,-99.99,,2013-03-08 13:01:00,
2013-03-08 07:11:00,22.0,20.0,-100.00,ESE,110,7.0,9.0,94,0.00,,,-99.99,,2013-03-08 13:11:00,
2013-03-08 07:21:00,22.0,21.0,-100.00,ESE,115,7.0,8.0,94,0.00,,,-99.99,,2013-03-08 13:21:00,
2013-03-08 07:32:00,22.0,21.0,-100.00,ESE,110,7.0,8.0,94,0.00,,,-99.99,,2013-03-08 13:32:00,
2013-03-08 07:42:00,23.0,22.0,-100.00,ESE,105,6.0,7.0,94,0.00,,,-99.99,,2013-03-08 13:42:00,
2013-03-08 07:52:00,24.0,22.0,-100.00,East,100,3.0,4.0,94,0.00,,,-99.99,,2013-03-08 13:52:00,
2013-03-08 08:02:00,24.0,22.0,-100.00,East,100,3.0,4.0,94,0.00,,,-99.99,,2013-03-08 14:02:00,
2013-03-08 08:11:00,25.0,23.0,-100.00,East,100,4.0,6.0,94,0.00,,,-99.99,,2013-03-08 14:11:00,
2013-03-08 08:22:00,25.0,24.0,-100.00,ESE,120,6.0,9.0,94,0.00,,,-99.99,,2013-03-08 14:22:00,
2013-03-08 08:32:00,26.0,24.0,-100.00,SE,125,9.0,11.0,93,0.00,,,-99.99,,2013-03-08 14:32:00,
2013-03-08 08:42:00,26.0,25.0,-100.00,ESE,115,9.0,11.0,93,0.00,,,-99.99,,2013-03-08 14:42:00,
2013-03-08 08:52:00,27.0,25.0,-100.00,ESE,120,11.0,12.0,92,0.00,,,-99.99,,2013-03-08 14:52:00,
2013-03-08 09:02:00,27.0,25.0,-100.00,ESE,120,11.0,12.0,92,0.00,,,-99.99,,2013-03-08 15:02:00,
2013-03-08 09:11:00,28.0,26.0,-100.00,SE,130,12.0,14.0,91,0.00,,,-99.99,,2013-03-08 15:11:00,
2013-03-08 09:22:00,28.0,26.0,-100.00,SE,125,12.0,15.0,91,0.00,,,-99.99,,2013-03-08 15:22:00,
2013-03-08 09:32:00,29.0,26.0,-100.00,SE,135,12.0,15.0,90,0.00,,,-99.99,,2013-03-08 15:32:00,
2013-03-08 09:42:00,29.0,27.0,-100.00,SE,130,12.0,15.0,90,0.00,,,-99.99,,2013-03-08 15:42:00,
2013-03-08 09:52:00,30.0,27.0,-100.00,SE,135,11.0,14.0,90,0.00,,,-99.99,,2013-03-08 15:52:00,
2013-03-08 10:01:00,30.0,28.0,-100.00,SE,140,11.0,14.0,89,0.00,,,-99.99,,2013-03-08 16:01:00,
2013-03-08 10:11:00,30.0,28.0,-100.00,SE,140,11.0,14.0,89,0.00,,,-99.99,,2013-03-08 16:11:00,
2013-03-08 10:21:00,32.0,29.0,-100.00,SE,130,10.0,12.0,87,0.00,,,-99.99,,2013-03-08 16:21:00,
2013-03-08 10:32:00,32.0,29.0,-100.00,SE,125,9.0,12.0,86,0.00,,,-99.99,,2013-03-08 16:32:00,
2013-03-08 10:42:00,33.0,29.0,-100.00,SE,125,10.0,12.0,86,0.00,,,-99.99,,2013-03-08 16:42:00,
2013-03-08 10:52:00,34.0,30.0,-100.00,SE,125,10.0,12.0,85,0.00,,,-99.99,,2013-03-08 16:52:00,
2013-03-08 11:02:00,34.0,30.0,-100.00,SE,125,10.0,12.0,85,0.00,,,-99.99,,2013-03-08 17:02:00,
2013-03-08 11:11:00,34.0,30.0,-100.00,SE,125,11.0,14.0,85,0.00,,,-99.99,,2013-03-08 17:11:00,
2013-03-08 11:21:00,35.0,31.0,-100.00,ESE,115,12.0,14.0,84,0.00,,,-99.99,,2013-03-08 17:21:00,
2013-03-08 11:32:00,35.0,31.0,-100.00,SE,130,11.0,14.0,84,0.00,,,-99.99,,2013-03-08 17:32:00,
2013-03-08 11:41:00,36.0,32.0,-100.00,SE,130,11.0,14.0,83,0.00,,,-99.99,,2013-03-08 17:41:00,
2013-03-08 11:52:00,37.0,33.0,-100.00,SE,135,9.0,13.0,83,0.00,,,-99.99,,2013-03-08 17:52:00,
2013-03-08 12:02:00,37.0,33.0,-100.00,SE,135,9.0,13.0,83,0.00,,,-99.99,,2013-03-08 18:02:00,
2013-03-08 12:11:00,37.0,32.0,-100.00,SE,125,11.0,14.0,81,0.00,,,-99.99,,2013-03-08 18:11:00,
2013-03-08 12:21:00,37.0,32.0,-100.00,SE,125,11.0,14.0,81,0.00,,,-99.99,,2013-03-08 18:21:00,
2013-03-08 12:32:00,38.0,33.0,-100.00,ESE,120,11.0,14.0,80,0.00,,,-99.99,,2013-03-08 18:32:00,
2013-03-08 12:42:00,39.0,34.0,-100.00,SE,125,12.0,15.0,80,0.00,,,-99.99,,2013-03-08 18:42:00,
2013-03-08 12:52:00,40.0,35.0,-100.00,ESE,120,11.0,13.0,80,0.00,,,-99.99,,2013-03-08 18:52:00,
2013-03-08 13:01:00,40.0,35.0,-100.00,ESE,120,11.0,13.0,80,0.00,,,-99.99,,2013-03-08 19:01:00,
2013-03-08 13:11:00,40.0,35.0,-100.00,ESE,115,13.0,15.0,80,0.00,,,-99.99,,2013-03-08 19:11:00,
2013-03-08 13:21:00,41.0,35.0,-100.00,ESE,115,14.0,16.0,80,0.00,,,-99.99,,2013-03-08 19:21:00,
2013-03-08 13:32:00,42.0,36.0,-100.00,ESE,110,16.0,18.0,80,0.00,,,-99.99,,2013-03-08 19:32:00,
2013-03-08 13:41:00,42.0,36.0,-100.00,ESE,115,11.0,17.0,80,0.00,,,-99.99,,2013-03-08 19:41:00,
2013-03-08 13:52:00,43.0,37.0,-100.00,ESE,110,12.0,16.0,79,0.00,,,-99.99,,2013-03-08 19:52:00,
2013-03-08 14:01:00,43.0,37.0,-100.00,ESE,110,12.0,16.0,79,0.00,,,-99.99,,2013-03-08 20:01:00,
2013-03-08 14:11:00,44.0,38.0,-100.00,ESE,110,13.0,17.0,78,0.00,,,-99.99,,2013-03-08 20:11:00,
2013-03-08 14:21:00,44.0,38.0,-100.00,ESE,120,14.0,17.0,78,0.00,,,-99.99,,2013-03-08 20:21:00,
2013-03-08 14:32:00,44.0,38.0,-100.00,ESE,120,18.0,21.0,78,0.00,,,-99.99,,2013-03-08 20:32:00,
2013-03-08 14:42:00,44.0,38.0,-100.00,ESE,120,18.0,21.0,78,0.00,,,-99.99,,2013-03-08 20:42:00,
2013-03-08 14:52:00,44.0,38.0,-100.00,ESE,120,16.0,21.0,78,0.00,,,-99.99,,2013-03-08 20:52:00,
2013-03-08 15:02:00,44.0,38.0,-100.00,ESE,120,16.0,21.0,78,0.00,,,-99.99,,2013-03-08 21:02:00,
2013-03-08 15:11:00,44.0,38.0,-100.00,ESE,115,14.0,23.0,78,0.00,,,-99.99,,2013-03-08 21:11:00,
2013-03-08 15:21:00,44.0,38.0,-100.00,ESE,115,14.0,19.0,80,0.00,,,-99.99,,2013-03-08 21:21:00,
2013-03-08 15:32:00,43.0,38.0,-100.00,ESE,120,16.0,21.0,80,0.00,,,-99.99,,2013-03-08 21:32:00,
2013-03-08 15:42:00,42.0,37.0,-100.00,ESE,110,17.0,19.0,83,0.00,,,-99.99,,2013-03-08 21:42:00,
2013-03-08 15:52:00,41.0,37.0,-100.00,ESE,115,15.0,19.0,86,0.00,,,-99.99,,2013-03-08 21:52:00,
2013-03-08 16:01:00,41.0,37.0,-100.00,ESE,115,15.0,19.0,86,0.00,,,-99.99,,2013-03-08 22:01:00,
2013-03-08 16:11:00,40.0,37.0,-100.00,ESE,105,16.0,20.0,86,0.00,,,-99.99,,2013-03-08 22:11:00,
2013-03-08 16:22:00,40.0,36.0,-100.00,ESE,115,17.0,21.0,87,0.00,,,-99.99,,2013-03-08 22:22:00,
2013-03-08 16:32:00,40.0,36.0,-100.00,ESE,120,19.0,21.0,87,0.00,,,-99.99,,2013-03-08 22:32:00,
2013-03-08 16:42:00,39.0,36.0,-100.00,SE,130,22.0,26.0,87,0.00,,,-99.99,,2013-03-08 22:42:00,
2013-03-08 16:52:00,38.0,35.0,-100.00,SE,125,21.0,26.0,87,0.00,,,-99.99,,2013-03-08 22:52:00,
2013-03-08 17:01:00,38.0,35.0,-100.00,SE,125,21.0,26.0,87,0.00,,,-99.99,,2013-03-08 23:01:00,
2013-03-08 17:11:00,38.0,35.0,-100.00,SE,125,19.0,24.0,87,0.00,,,-99.99,,2013-03-08 23:11:00,
2013-03-08 17:21:00,38.0,34.0,-100.00,SE,130,20.0,25.0,87,0.00,,,-99.99,,2013-03-08 23:21:00,
2013-03-08 17:32:00,38.0,34.0,-100.00,SE,125,18.0,22.0,87,0.00,,,-99.99,,2013-03-08 23:32:00,
2013-03-08 17:42:00,37.0,34.0,-100.00,ESE,120,19.0,24.0,87,0.00,,,-99.99,,2013-03-08 23:42:00,
2013-03-08 17:52:00,36.0,33.0,-100.00,ESE,120,18.0,24.0,87,0.00,,,-99.99,,2013-03-08 23:52:00,
2013-03-08 18:02:00,36.0,33.0,-100.00,ESE,120,18.0,24.0,87,0.00,,,-99.99,,2013-03-09 00:02:00,
2013-03-08 18:11:00,36.0,33.0,-100.00,SE,125,17.0,22.0,87,0.00,,,-99.99,,2013-03-09 00:11:00,
2013-03-08 18:22:00,36.0,33.0,-100.00,SE,125,16.0,21.0,87,0.00,,,-99.99,,2013-03-09 00:22:00,
2013-03-08 18:32:00,36.0,33.0,-100.00,SE,125,13.0,19.0,87,0.00,,,-99.99,,2013-03-09 00:32:00,
2013-03-08 18:42:00,36.0,33.0,-100.00,ESE,115,12.0,19.0,87,0.00,,,-99.99,,2013-03-09 00:42:00,
2013-03-08 18:52:00,37.0,33.0,-100.00,ESE,120,15.0,17.0,87,0.00,,,-99.99,,2013-03-09 00:52:00,
2013-03-08 19:01:00,37.0,33.0,-100.00,ESE,120,15.0,17.0,87,0.00,,,-99.99,,2013-03-09 01:01:00,
2013-03-08 19:12:00,36.0,33.0,-100.00,SE,125,14.0,19.0,87,0.00,,,-99.99,,2013-03-09 01:12:00,
2013-03-08 19:21:00,36.0,33.0,-100.00,ESE,120,11.0,16.0,87,0.00,,,-99.99,,2013-03-09 01:21:00,
2013-03-08 19:32:00,36.0,33.0,-100.00,ESE,120,13.0,17.0,87,0.00,,,-99.99,,2013-03-09 01:32:00,
2013-03-08 19:41:00,36.0,33.0,-100.00,SE,125,13.0,16.0,87,0.00,,,-99.99,,2013-03-09 01:41:00,
2013-03-08 19:51:00,36.0,32.0,-100.00,ESE,120,14.0,17.0,87,0.00,,,-99.99,,2013-03-09 01:51:00,
2013-03-08 20:01:00,36.0,32.0,-100.00,ESE,120,14.0,17.0,87,0.00,,,-99.99,,2013-03-09 02:01:00,
2013-03-08 20:11:00,36.0,33.0,-100.00,SE,130,17.0,21.0,87,0.00,,,-99.99,,2013-03-09 02:11:00,
2013-03-08 20:21:00,36.0,32.0,-100.00,SE,130,14.0,21.0,87,0.00,,,-99.99,,2013-03-09 02:21:00,
2013-03-08 20:31:00,36.0,32.0,-100.00,SE,130,16.0,19.0,86,0.00,,,-99.99,,2013-03-09 02:31:00,
2013-03-08 20:41:00,36.0,32.0,-100.00,SE,130,18.0,22.0,85,0.00,,,-99.99,,2013-03-09 02:41:00,
2013-03-08 20:51:00,35.0,31.0,-100.00,SE,140,17.0,21.0,85,0.58,,,-99.99,,2013-03-09 02:51:00,
2013-03-08 21:01:00,35.0,31.0,-100.00,SE,140,17.0,21.0,85,0.58,,,-99.99,,2013-03-09 03:01:00,
2013-03-08 21:11:00,35.0,31.0,-100.00,SSE,150,16.0,19.0,87,0.78,,,-99.99,,2013-03-09 03:11:00,
2013-03-08 21:21:00,35.0,32.0,-100.00,SE,135,15.0,20.0,89,0.38,,,-99.99,,2013-03-09 03:21:00,
2013-03-08 21:31:00,35.0,32.0,-100.00,SE,125,16.0,17.0,89,0.00,,,-99.99,,2013-03-09 03:31:00,
2013-03-08 21:41:00,35.0,32.0,-100.00,SE,130,14.0,17.0,89,0.41,,,-99.99,,2013-03-09 03:41:00,
2013-03-08 21:52:00,35.0,33.0,-100.00,SE,145,17.0,23.0,90,0.51,,,-99.99,,2013-03-09 03:52:00,
2013-03-08 22:01:00,35.0,33.0,-100.00,SE,145,17.0,23.0,90,0.51,,,-99.99,,2013-03-09 04:01:00,
2013-03-08 22:11:00,35.0,33.0,-100.00,SE,145,17.0,23.0,91,0.37,,,-99.99,,2013-03-09 04:11:00,
2013-03-08 22:22:00,35.0,33.0,-100.00,SE,140,13.0,19.0,91,0.00,,,-99.99,,2013-03-09 04:22:00,
2013-03-08 22:32:00,35.0,33.0,-100.00,SE,135,17.0,21.0,91,0.51,,,-99.99,,2013-03-09 04:32:00,
2013-03-08 22:41:00,35.0,33.0,-100.00,SE,135,15.0,19.0,91,0.34,,,-99.99,,2013-03-09 04:41:00,
2013-03-08 22:51:00,35.0,33.0,-100.00,SE,135,18.0,22.0,92,0.35,,,-99.99,,2013-03-09 04:51:00,
2013-03-08 23:02:00,35.0,33.0,-100.00,SE,145,17.0,22.0,92,0.35,,,-99.99,,2013-03-09 05:02:00,
2013-03-08 23:11:00,35.0,33.0,-100.00,SE,135,17.0,22.0,92,0.38,,,-99.99,,2013-03-09 05:11:00,
2013-03-08 23:21:00,35.0,33.0,-100.00,SE,140,17.0,22.0,92,0.57,,,-99.99,,2013-03-09 05:21:00,
2013-03-08 23:31:00,35.0,33.0,-100.00,SE,145,16.0,22.0,93,0.68,,,-99.99,,2013-03-09 05:31:00,
2013-03-08 23:42:00,35.0,33.0,-100.00,SE,135,14.0,21.0,94,0.41,,,-99.99,,2013-03-09 05:42:00,
2013-03-08 23:52:00,35.0,33.0,-100.00,SSE,150,12.0,19.0,94,0.45,,,-99.99,,2013-03-09 05:52:00,